Theta_e
307 302 298 301 302 301 298 297 295 299 302 300 299 299 301 305 305 305 306 308 309 311 314 317 320 320 322 326 336 335 341 343 344 354 354 348 345 349 352 351 356 351 350 349
303 299 303 304 302 300 299 297 296 299 301 299 298 298 302 304 305 306 307 308 309 311 313 315 318 321 321 329 332 340 339 345 347 354 355 354 349 349 350 352 352 352 350 351
299 301 304 302 300 298 298 296 295 295 298 299 297 295 299 302 305 307 309 311 311 312 312 314 317 319 321 325 334 336 338 342 344 351 355 355 356 350 347 346 349 352 352 352
301 304 302 301 299 300 295 300 298 296 294 290 298 287 297 301 302 305 307 308 311 311 313 315 316 318 320 322 326 334 338 339 343 344 351 351 348 345 344 347 345 351 352 353
299 301 300 299 299 302 297 301 298 298 295 294 294 291 295 300 299 303 306 308 310 311 313 313 314 316 320 321 322 332 334 339 339 343 347 351 350 348 350 349 344 348 352 354
303 307 303 302 303 302 302 299 298 297 294 288 292 292 291 295 298 303 306 309 310 311 312 314 317 317 318 320 321 322 333 338 342 349 346 352 350 349 347 346 344 344 348 350
300 300 304 305 300 302 299 295 288 285 286 285 294 289 292 300 302 304 305 306 308 310 312 313 314 315 318 319 322 322 333 339 345 347 348 351 352 352 349 346 344 343 345 346
293 291 299 303 299 295 296 295 288 280 282 286 293 287 294 303 304 306 307 305 310 310 312 314 315 317 317 321 320 326 332 337 344 345 346 348 351 350 350 349 346 345 345 347
293 292 301 301 301 300 296 293 295 285 291 287 290 294 298 302 302 304 305 306 307 311 313 314 315 320 321 322 324 328 334 336 341 345 345 346 349 349 347 347 347 344 346 345
298 291 298 299 301 301 298 300 290 292 282 279 286 288 289 296 298 303 303 304 306 310 311 312 314 320 321 324 326 329 330 331 340 342 344 345 346 348 349 350 347 347 347 341
301 296 294 298 295 293 295 293 295 294 291 283 283 287 298 299 301 302 304 305 307 309 309 310 314 315 320 321 321 326 329 329 330 335 344 344 344 345 347 347 348 349 346 339
301 296 289 291 298 301 297 294 295 288 286 290 288 287 300 301 303 304 304 304 306 307 309 311 312 315 316 319 320 323 328 328 331 331 334 336 342 344 345 346 348 350 346 340
300 293 285 288 295 299 294 296 295 294 294 288 284 287 302 303 302 303 302 303 305 306 307 309 310 313 314 317 320 319 323 324 327 330 326 339 338 343 345 347 347 342 333 331
304 296 290 285 290 294 292 293 295 294 288 288 289 291 295 298 298 300 302 303 303 305 306 307 309 312 312 316 318 320 322 323 324 325 328 332 339 342 344 345 344 332 332 330
300 291 293 294 295 295 293 294 294 292 294 289 291 291 295 298 298 300 302 303 303 303 304 306 308 309 312 314 315 319 322 324 324 323 327 331 339 340 341 330 328 327 328 327
301 292 294 291 295 295 293 295 295 295 294 293 293 291 298 298 296 295 296 298 299 300 302 303 306 308 309 312 315 315 320 324 324 323 323 330 337 336 329 325 322 318 316 315
298 296 293 287 294 293 289 292 294 294 295 294 288 294 296 293 295 295 296 298 298 299 300 301 303 307 308 310 313 314 318 323 323 322 323 326 336 333 328 328 324 319 316 316
297 297 296 290 292 283 294 299 297 295 295 296 296 292 294 294 295 295 295 294 294 296 297 299 302 305 307 309 310 314 317 319 322 321 321 324 332 332 330 326 322 320 317 314
305 299 293 288 287 291 294 296 291 289 289 298 291 293 292 292 291 289 294 295 295 296 297 299 301 303 306 306 310 313 314 316 318 318 320 323 330 329 327 323 317 315 312 311
301 301 295 291 285 282 294 298 301 301 287 296 292 288 288 288 281 286 294 293 293 294 295 296 299 302 302 306 309 310 312 314 316 318 319 329 327 323 321 317 312 313 310 307
294 294 290 290 288 292 300 301 302 286 286 292 293 289 287 285 287 289 291 292 294 295 296 297 296 297 301 305 308 309 310 313 317 319 322 328 322 319 317 313 312 309 308 305
292 289 289 291 287 285 303 299 288 290 293 293 290 290 288 288 289 290 292 294 298 301 304 303 297 297 301 304 307 308 308 315 317 320 325 322 319 316 314 309 308 307 304 301
290 295 291 291 292 303 305 303 300 300 290 289 288 289 289 288 288 291 294 298 306 304 302 302 297 297 300 304 307 307 309 316 317 320 322 318 316 314 310 308 305 302 301 299
297 300 296 296 299 302 303 303 300 296 291 292 290 290 290 288 291 294 298 300 306 304 303 302 299 298 298 304 306 307 312 315 316 321 318 316 313 310 310 307 305 302 299 298
298 298 295 297 300 299 301 298 299 295 294 292 291 291 290 291 293 296 297 300 308 307 306 303 301 301 302 303 304 309 313 314 318 318 315 313 310 309 307 306 304 303 302 300
301 296 294 293 301 294 295 299 298 293 291 291 290 290 291 292 294 296 297 300 306 305 306 306 307 309 306 307 311 310 312 317 317 313 311 309 308 306 302 300 295 294 295 294
Wind_Speed
10 12 14 18 11 15 19 21 24 25 24 23 24 24 25 25 25 25 23 22 22 21 19 17 16 17 15 13 8 11 15 11 8 9 8 11 11 5 7 8 11 16 12 11
14 14 16 21 14 17 21 24 24 24 23 23 25 28 27 27 27 22 21 22 22 23 20 18 18 15 16 10 10 10 10 10 9 8 9 9 11 7 7 4 7 16 15 12
16 20 19 9 16 19 22 21 21 26 25 26 26 29 24 28 27 16 16 20 18 19 20 20 18 16 14 11 8 10 12 11 9 9 8 7 8 10 10 5 6 13 15 11
15 12 21 22 21 19 21 19 22 23 24 21 22 24 23 19 21 11 17 17 22 17 15 14 15 15 15 13 12 11 12 11 10 12 10 12 8 11 11 10 5 12 14 11
19 19 21 18 22 14 17 20 24 29 27 26 26 15 16 22 16 15 12 13 9 12 14 13 17 17 16 15 13 10 14 14 14 14 11 11 10 9 10 7 8 12 10 10
21 18 20 22 13 11 20 22 25 22 19 15 25 4 8 10 9 28 13 15 8 4 11 14 13 17 15 16 16 14 16 14 15 12 15 12 13 12 9 12 10 9 7 9
20 19 19 17 20 17 24 23 11 11 8 14 15 5 11 13 24 29 24 11 14 14 10 11 11 11 12 13 14 15 15 14 14 12 12 12 12 13 13 13 11 11 9 10
15 19 12 25 23 25 24 17 10 11 12 20 18 11 7 10 12 22 25 28 16 8 9 13 14 13 16 6 15 12 14 14 14 14 13 11 11 7 8 10 10 8 9 12
13 12 26 24 22 19 19 12 5 10 19 14 15 19 8 11 4 10 15 25 26 20 18 4 8 10 12 14 15 9 4 15 13 14 11 12 9 9 9 11 10 9 10 4
10 23 14 18 22 18 18 6 5 7 6 7 13 19 8 7 17 9 5 9 17 15 16 24 15 9 8 8 9 7 8 9 5 12 10 10 11 8 8 7 10 10 9 4
15 2 15 23 18 22 15 12 11 5 6 6 9 9 19 21 14 12 18 15 13 4 8 13 6 7 6 5 6 9 7 4 5 5 8 11 9 8 7 7 8 9 5 10
9 7 16 27 27 22 8 13 9 3 12 13 14 18 18 17 23 18 15 16 21 22 14 7 13 3 7 5 4 5 6 9 4 5 7 8 10 12 9 8 7 4 7 11
4 2 10 17 7 8 21 21 18 19 17 17 14 16 13 21 19 18 20 22 19 20 24 19 10 15 4 6 5 4 4 4 7 8 9 8 16 10 9 7 6 8 10 10
4 11 14 14 22 23 24 24 24 18 9 19 17 24 21 17 19 22 23 21 23 21 21 19 18 11 10 7 3 6 4 4 6 10 9 7 12 12 10 7 6 12 14 16
3 9 16 18 24 26 27 28 25 18 20 12 9 23 19 19 23 25 26 23 24 21 20 19 16 14 12 10 8 6 5 5 5 8 11 7 10 13 11 12 14 12 12 13
6 12 15 25 24 27 29 23 16 19 19 17 18 22 19 21 20 22 25 27 24 24 23 22 22 16 16 15 10 5 8 5 4 7 10 10 5 16 14 16 15 16 15 15
18 16 17 20 18 23 18 4 9 10 12 9 12 24 18 20 26 28 27 25 25 26 26 23 25 19 14 14 15 9 8 4 5 6 9 12 9 17 15 16 16 17 17 16
15 17 15 15 18 15 15 16 9 11 14 16 18 11 21 27 27 29 26 26 26 25 24 22 20 17 14 14 17 14 9 7 6 7 10 11 12 16 16 16 15 13 14 15
16 11 8 7 12 19 16 8 2 3 18 15 5 19 22 25 23 33 14 16 19 22 20 18 15 15 15 17 16 13 10 9 10 9 11 8 9 14 17 16 16 14 15 14
6 11 7 12 16 13 14 15 14 12 12 7 12 14 21 20 15 23 25 26 25 23 21 20 18 15 14 13 12 14 12 12 11 10 11 9 12 15 17 18 18 13 15 15
13 14 14 13 15 15 9 22 16 9 14 13 15 18 19 18 14 25 30 29 26 24 23 21 19 17 15 12 12 14 14 14 10 11 9 13 13 15 17 17 16 16 15 16
9 6 10 8 14 9 26 14 3 5 10 16 17 18 20 22 25 26 28 27 28 22 13 17 15 15 18 14 14 15 14 11 11 11 11 14 16 14 14 20 16 16 16 16
6 7 13 7 8 20 15 13 10 15 7 12 18 20 20 22 25 27 25 26 13 8 6 3 11 13 15 15 12 13 14 11 10 7 15 17 17 16 17 19 18 15 15 15
16 15 9 16 10 19 18 16 17 10 12 17 18 19 19 21 22 26 21 21 13 2 2 7 11 12 13 13 11 9 13 11 10 14 17 17 18 17 16 13 13 14 14 14
14 17 9 14 15 17 17 17 14 16 15 17 19 19 20 20 22 18 21 20 7 5 2 6 6 7 9 11 12 14 14 13 11 15 17 17 15 16 15 12 11 12 12 12
11 3 4 8 15 5 14 15 18 14 17 18 18 20 16 16 19 18 16 15 9 7 7 4 1 8 14 13 16 16 16 14 16 17 15 15 15 13 12 13 12 20 18 18
Wind_Direction
322 289 271 297 341 319 308 297 292 290 296 307 302 303 301 301 286 277 270 270 268 270 256 249 234 236 244 216 225 188 178 195 199 195 210 208 236 227 231 192 171 171 179 194
288 297 314 320 319 295 286 287 292 305 317 316 308 296 288 278 272 275 280 265 256 248 258 246 238 232 230 212 207 175 178 184 195 199 202 206 207 213 231 230 170 165 178 186
310 303 296 308 283 298 299 301 319 314 312 297 294 285 295 298 293 301 313 304 255 266 237 238 231 221 221 211 203 177 176 183 202 225 197 211 224 212 225 247 173 171 177 186
300 289 310 302 302 300 299 328 307 300 300 293 297 292 282 318 330 278 271 284 304 251 258 243 240 219 208 221 206 179 172 184 194 215 196 196 202 202 210 222 231 170 174 186
290 302 289 288 288 311 312 304 294 299 296 297 289 294 336 332 328 314 285 251 276 318 312 269 215 229 208 205 219 190 179 182 201 201 224 189 199 217 196 207 194 191 180 185
282 294 308 290 335 306 279 291 305 309 303 293 296 31 292 292 213 254 248 247 294 348 306 285 276 209 215 203 206 219 180 188 190 200 206 192 196 202 212 210 206 194 192 188
314 301 287 348 341 324 325 303 310 293 306 284 326 200 234 356 346 348 345 345 329 314 301 346 325 225 205 207 198 201 180 183 182 191 197 198 203 203 204 214 198 187 199 196
301 316 335 351 326 306 295 299 301 297 301 299 306 272 34 7 337 334 347 345 344 298 14 20 338 339 15 303 188 204 176 181 182 187 181 197 205 201 215 214 209 200 204 204
322 285 316 305 298 313 312 315 339 263 256 278 280 284 39 325 278 333 11 340 322 355 354 323 238 18 32 347 8 359 173 175 178 180 177 176 194 201 214 222 214 206 210 235
307 305 314 307 322 290 293 324 255 221 305 311 303 309 132 265 340 308 294 206 265 340 356 330 1 46 9 7 340 335 351 9 169 182 172 167 172 191 223 229 230 217 214 182
320 300 290 304 309 314 317 322 310 360 259 304 314 308 328 320 7 339 332 330 326 2 13 295 310 336 341 350 343 353 342 290 312 322 179 166 173 181 207 225 236 243 194 145
42 296 297 304 296 274 221 321 273 243 277 273 282 283 290 317 328 341 326 328 339 331 299 277 296 204 277 286 337 334 338 341 278 266 266 192 184 166 187 219 220 236 212 174
32 284 308 310 296 357 318 318 313 295 300 287 284 284 312 329 313 331 320 312 319 315 310 311 306 298 290 200 212 243 308 297 316 295 255 226 186 147 172 200 182 116 93 86
222 268 263 262 285 298 301 298 293 287 274 289 276 296 293 304 329 333 325 319 312 307 295 292 297 274 291 232 211 207 198 282 282 301 288 257 172 153 176 163 138 122 142 137
200 261 271 266 284 290 292 291 293 314 296 299 287 291 312 324 330 324 307 305 302 290 291 298 286 297 291 277 211 246 208 181 278 284 298 275 170 150 125 102 105 114 114 114
183 265 281 280 283 285 291 304 331 311 304 316 315 300 312 345 338 317 302 299 301 298 300 301 293 272 288 305 270 300 201 192 217 267 285 289 178 129 125 121 119 110 106 104
270 274 281 279 294 303 297 352 265 317 317 319 296 302 348 321 313 306 303 298 286 279 280 274 267 273 267 284 293 251 257 200 179 248 266 281 148 132 140 132 131 131 129 125
253 258 275 284 298 282 304 47 7 320 304 293 303 332 312 320 313 298 296 286 284 279 278 279 277 275 273 270 278 282 235 244 200 214 258 272 155 144 146 135 124 121 130 128
204 255 294 273 286 284 293 54 287 290 294 284 337 320 316 309 308 293 268 268 268 273 277 275 270 262 261 257 260 266 244 231 211 203 242 263 161 151 148 125 120 130 123 116
321 291 256 288 287 295 315 23 350 302 296 46 337 304 309 314 304 291 314 306 292 278 268 262 260 269 238 246 242 242 252 218 206 207 231 168 155 146 137 126 123 121 116 113
320 310 284 284 296 287 344 9 356 335 314 331 315 311 308 299 284 289 295 293 286 278 266 250 236 235 246 235 234 231 230 218 193 214 220 143 143 140 131 126 127 122 119 113
300 290 299 308 296 281 355 350 324 270 302 312 315 315 306 298 299 298 297 299 296 287 283 235 211 208 219 221 235 219 212 215 197 205 146 141 138 138 127 126 121 117 115 111
294 304 298 278 276 297 316 346 350 332 327 320 316 311 305 303 303 303 304 307 297 335 331 349 181 190 214 202 219 219 201 198 196 183 145 141 135 131 132 129 127 120 120 118
301 312 302 307 294 311 325 349 341 354 322 318 311 308 307 301 305 305 308 311 303 282 1 156 174 188 194 208 201 231 201 180 211 140 145 138 132 132 133 128 129 130 130 129
290 293 286 277 305 321 316 334 337 337 325 318 313 312 304 308 309 314 313 319 357 9 16 156 174 188 189 197 203 223 180 192 157 146 140 132 127 128 127 122 133 135 131 135
277 316 315 304 320 286 294 331 344 331 325 320 315 316 313 308 312 322 316 318 350 21 20 11 15 212 209 203 199 171 187 172 149 135 129 130 129 122 118 113 93 69 88 97